GFSWCAN_2pvu_pres_024.txt.gz
Presure
232 244 401 298 383 291 374 382 429 479 493 504 370 340 336 296 246 298 286 266 162 266 263 159 170 207 237 243 229 198 234 229 219 212 206 213 212 209 200 203 196 201 200 200 197 197 99 133 155 196 198 198 200 200
389 421 416 415 413 251 460 483 510 486 571 375 353 330 268 277 254 271 271 264 193 239 209 259 222 259 249 236 208 231 229 220 220 213 205 216 198 211 203 203 200 194 196 197 199 199 139 195 195 199 193 198 189 192
543 488 543 218 388 485 506 513 555 556 400 360 346 300 282 279 242 250 228 277 218 263 239 266 255 256 237 195 199 230 225 228 220 208 209 205 203 211 208 203 200 197 196 196 199 200 200 197 199 147 189 189 190 194
368 127 375 411 401 408 489 430 404 374 359 308 300 283 214 255 196 237 252 187 201 212 253 211 235 241 235 205 220 235 224 221 222 207 207 202 206 203 211 200 204 202 201 197 197 202 201 205 193 196 191 191 193 192
328 359 359 366 376 331 220 329 308 299 295 295 295 287 266 259 267 258 231 171 185 260 245 251 251 241 230 203 209 232 225 216 221 208 208 204 207 202 210 206 205 205 198 201 204 202 207 198 190 189 191 188 195 188
290 294 294 294 291 288 291 290 283 278 266 256 240 253 257 259 262 263 244 161 248 265 229 259 237 221 215 223 233 224 231 218 220 214 209 203 209 200 200 202 206 201 203 199 196 198 185 196 195 190 197 198 198 199
278 276 279 279 277 280 279 279 274 268 266 265 262 265 250 247 254 250 244 265 215 268 232 242 233 221 217 206 233 221 230 219 220 215 209 206 209 198 199 204 197 195 197 196 195 201 199 199 200 192 193 201 203 187
265 272 254 266 269 268 272 273 279 277 271 280 274 255 258 246 243 216 239 230 257 263 248 187 211 235 212 222 230 222 230 224 219 218 211 200 207 201 197 195 197 196 200 200 201 199 195 198 190 202 200 182 210 200
267 269 265 266 282 271 265 265 260 275 254 271 273 274 284 262 269 245 257 235 261 258 189 238 223 202 213 234 229 228 231 225 220 216 215 209 206 205 204 182 201 138 198 194 197 203 205 201 201 191 193 211 193 196
249 261 266 266 260 260 262 262 277 301 290 291 260 272 270 254 265 245 252 263 203 205 201 224 210 238 229 232 232 225 225 224 224 217 211 201 202 198 200 197 199 207 205 203 200 201 201 185 183 214 200 215 209 208
250 250 252 255 257 257 255 254 256 263 274 276 256 251 273 250 249 191 189 194 214 223 225 240 213 209 240 239 232 223 226 223 220 216 211 200 208 210 202 202 200 201 202 202 201 197 197 213 203 216 207 209 211 213
252 249 247 245 247 254 254 252 251 251 248 243 241 251 259 256 243 246 220 196 229 224 225 239 230 236 230 226 221 231 223 220 217 216 210 199 199 210 214 202 203 202 196 200 213 212 216 216 205 212 206 215 217 217
234 237 248 235 253 235 227 247 229 241 247 247 247 243 244 255 242 235 236 237 234 223 225 239 234 230 225 226 227 226 222 219 218 217 214 204 201 203 199 208 212 213 213 212 219 206 203 203 212 218 218 215 221 241
234 240 239 240 232 232 244 249 253 261 257 248 247 239 239 246 241 232 230 236 244 238 232 227 224 228 222 226 225 216 213 217 218 219 217 215 213 214 214 215 218 216 202 194 211 213 216 221 223 225 204 244 203 204
229 231 230 230 231 239 245 229 231 243 227 231 252 250 248 239 236 243 244 233 225 224 221 219 221 231 232 229 226 220 219 219 220 215 217 217 220 210 196 214 219 218 218 222 226 228 230 220 220 231 204 219 223 228
245 244 238 244 237 235 249 245 243 232 230 245 250 239 238 231 239 240 229 222 223 221 222 227 238 236 226 225 225 224 225 225 220 217 218 220 220 222 228 227 217 216 234 239 239 215 226 204 210 218 229 224 235 243
232 233 236 241 238 240 229 231 242 245 240 235 238 244 238 230 230 230 232 232 229 221 218 218 216 217 218 219 221 236 232 229 222 221 214 213 213 214 219 218 215 213 218 218 220 198 212 229 227 230 244 250 241 248
229 234 230 242 240 233 229 228 227 230 230 257 246 234 245 248 236 230 232 233 233 231 227 222 226 229 227 224 221 219 219 221 222 222 223 222 222 221 222 220 212 189 196 211 228 229 238 246 255 253 246 246 252 258
232 231 246 240 244 243 232 238 240 243 239 237 240 256 260 250 241 244 243 235 231 228 230 232 234 230 229 229 229 230 228 226 227 229 229 220 195 194 214 236 238 238 241 247 250 248 247 240 244 247 253 255 265 256
240 240 240 231 273 250 233 224 234 242 239 245 239 231 236 241 251 262 264 260 254 245 240 236 232 230 233 235 236 233 232 234 235 237 240 241 244 241 236 243 249 241 239 246 248 248 251 251 254 261 253 249 261 263
228 230 241 234 225 229 239 257 238 235 243 245 240 239 243 240 249 252 246 249 257 256 253 252 250 251 247 248 248 250 247 242 222 212 211 249 249 259 239 230 243 251 251 253 251 253 263 270 275 263 269 278 280 290
258 250 248 250 243 236 236 265 258 253 255 248 246 241 239 244 270 267 267 260 254 255 260 259 256 253 251 253 223 250 252 250 253 248 244 240 233 249 249 251 249 255 263 266 271 277 267 263 266 266 274 273 283 310
244 233 246 257 256 248 233 239 236 232 236 250 252 254 256 266 271 264 258 261 260 252 252 253 252 256 258 259 259 257 257 254 252 254 253 254 257 259 261 266 271 268 262 263 258 255 262 265 282 292 312 334 349 414
239 236 232 271 244 246 249 237 246 248 264 250 252 260 264 266 262 262 265 266 266 267 265 260 257 258 262 262 262 259 261 261 262 262 266 265 268 271 279 269 263 251 260 271 300 305 302 320 350 352 360 415 406 394
248 270 276 267 251 266 267 255 262 244 249 265 266 239 240 251 246 265 280 273 267 264 267 269 270 272 273 268 264 267 266 265 268 268 264 260 270 250 257 262 265 287 297 314 323 356 397 353 400 391 390 388 382 380
292 292 296 271 260 270 283 289 271 274 288 261 263 254 250 250 257 250 278 257 259 263 262 255 254 261 266 269 266 265 266 269 264 262 274 280 283 292 303 318 320 332 369 391 390 388 387 384 380 378 379 386 388 383
313 305 287 288 290 305 301 284 290 304 272 278 278 280 286 284 278 277 281 276 270 271 277 274 273 279 289 307 315 316 316 316 314 316 321 326 351 387 393 393 393 388 385 384 383 382 383 386 390 385 377 371 375 385
314 317 316 328 331 339 339 338 333 336 344 346 352 347 346 333 332 356 356 363 362 356 358 358 369 369 352 401 389 386 370 365 356 356 354 354 382 387 387 384 382 383 389 391 389 386 380 375 372 374 378 475 501 496
301 323 324 317 315 341 344 408 417 418 406 413 408 407 401 417 408 406 398 387 319 399 398 395 399 396 394 394 394 398 398 396 396 397 398 398 398 392 389 386 384 382 378 373 368 368 371 379 375 365 415 380 368 363
327 325 325 359 387 378 369 390 401 399 396 394 396 396 388 386 384 387 384 381 386 392 395 401 403 402 400 398 394 391 388 385 385 383 379 376 375 376 372 368 365 361 368 377 370 363 361 388 428 387 367 357 350 348
339 335 338 360 357 348 344 391 387 386 383 380 382 383 382 384 388 391 393 395 393 387 382 379 378 378 377 376 375 374 372 372 370 370 371 365 364 373 372 363 385 394 373 362 352 346 348 408 379 364 359 356 349 344
385 387 382 327 346 386 387 386 387 389 389 387 330 325 379 373 369 368 368 369 376 379 375 366 362 364 372 368 365 365 363 362 369 370 366 370 388 395 391 378 368 359 354 352 362 433 420 411 394 371 364 359 357 356
351 391 387 384 375 370 366 364 360 360 363 368 374 380 387 385 371 358 357 363 372 371 365 358 355 357 368 370 365 362 365 375 382 380 374 368 364 362 358 359 366 399 398 390 381 378 385 388 385 380 377 375 372 392

GFSWCAN_2pvu_pres_030.txt.gz
Presure
355 369 353 339 344 347 341 339 338 348 363 380 374 417 560 335 209 315 323 275 252 244 236 224 222 199 213 209 190 200 192 205 205 209 199 216 223 225 236 269 200 232 222 209 202 211 207 205 201 198 199 206 203 200
372 366 350 351 349 341 340 343 350 353 380 371 374 396 540 389 343 304 305 306 253 255 248 156 153 160 206 208 194 199 188 190 199 213 199 194 224 228 227 256 238 228 224 209 209 203 209 202 201 193 197 199 195 194
366 358 357 351 351 353 354 356 362 372 368 374 379 399 536 377 357 303 297 306 269 241 156 153 159 157 158 160 185 227 228 191 228 179 177 224 225 231 258 245 233 227 224 209 203 207 199 207 120 199 195 201 201 196
375 366 366 364 367 366 367 370 303 376 378 383 285 267 321 367 338 163 288 314 305 260 251 247 246 228 198 216 221 227 214 212 214 212 216 228 233 227 249 238 189 229 224 219 202 201 179 201 201 203 203 197 199 199
370 220 405 421 416 275 403 398 394 399 411 400 397 465 338 310 333 292 284 287 296 255 309 278 260 247 204 228 219 224 232 230 226 227 231 227 232 245 241 238 222 224 221 222 213 180 201 207 207 200 201 206 207 202
411 402 397 401 393 377 167 376 381 396 380 414 164 567 387 343 312 266 265 271 285 296 276 284 247 239 256 272 170 168 172 245 245 250 238 249 241 237 235 233 230 207 222 217 217 214 207 204 205 206 201 199 202 202
518 135 400 389 387 368 170 166 457 347 431 328 504 356 322 273 297 270 272 273 263 253 252 243 249 236 231 233 183 232 226 223 241 236 246 218 231 225 229 223 234 217 214 217 222 219 215 207 207 207 207 206 205 194
474 507 524 418 389 389 408 443 488 501 535 450 344 323 300 259 259 247 266 252 250 236 239 233 226 235 218 230 191 205 216 227 222 235 243 232 229 234 230 214 207 233 225 219 219 218 221 220 210 209 205 204 207 207
473 494 553 547 327 505 514 506 399 339 325 309 299 257 268 236 246 253 262 254 241 247 247 239 234 244 222 213 220 254 232 194 210 217 230 230 227 243 230 202 200 217 216 226 228 223 220 216 218 218 219 217 203 207
321 318 401 593 354 323 319 308 308 312 264 243 260 272 280 251 222 222 239 208 240 225 232 256 243 221 238 231 227 212 247 241 232 231 216 222 227 229 228 212 211 216 222 222 227 231 231 224 219 218 221 220 219 212
296 251 253 308 295 303 280 251 262 250 261 259 247 241 249 233 238 221 224 200 233 217 225 194 225 221 157 215 250 208 198 238 246 237 240 231 225 227 234 227 213 217 217 222 232 233 231 230 225 222 222 221 219 220
258 284 277 240 261 253 279 263 274 263 242 239 245 235 231 243 205 251 242 230 239 213 244 220 247 251 207 237 217 237 230 235 243 242 238 228 229 228 217 224 224 223 227 225 227 229 231 230 227 226 223 220 221 218
259 243 239 241 261 269 245 262 250 262 248 256 263 219 237 222 256 243 228 246 249 254 252 226 192 204 206 243 212 207 242 243 250 252 248 242 230 229 211 203 226 215 220 226 234 234 232 227 224 223 223 222 221 215
300 261 273 254 230 226 254 236 241 264 243 257 273 226 264 217 263 228 251 224 235 241 237 243 226 216 214 214 219 227 259 255 228 252 246 240 234 228 204 211 216 222 227 236 235 226 225 231 232 226 222 221 218 220
252 263 290 261 251 247 234 234 235 248 240 250 253 252 232 240 261 277 256 237 249 249 242 230 228 224 225 222 229 225 224 262 245 233 250 244 237 228 217 219 223 225 231 232 231 228 227 225 226 228 225 223 227 227
238 241 243 256 270 276 264 231 230 232 257 231 241 266 228 224 231 237 283 238 225 248 245 238 219 217 228 221 228 197 196 195 198 210 219 222 223 225 226 230 238 245 242 232 228 231 230 229 230 231 229 229 232 214
241 228 229 246 238 242 245 259 270 272 263 254 244 273 238 239 244 256 236 244 237 226 259 253 226 225 224 227 247 256 252 260 212 246 238 226 225 222 232 239 234 222 222 225 225 226 227 228 232 237 244 236 227 232
245 239 243 238 237 236 244 241 231 232 237 241 249 252 260 264 258 256 261 262 245 242 249 256 256 251 247 245 234 233 233 229 228 234 237 232 239 243 235 227 224 225 230 235 241 244 232 225 228 233 234 237 239 237
221 241 242 234 241 253 245 241 229 237 244 242 240 239 239 237 242 240 242 241 252 250 252 249 248 249 251 248 245 243 245 247 248 245 245 248 242 233 232 228 226 226 228 230 232 234 234 235 240 244 243 244 246 252
236 238 236 241 238 242 240 246 244 246 242 240 233 233 244 245 247 246 238 237 236 235 242 245 243 239 242 243 244 242 241 246 249 247 246 243 238 235 234 236 237 241 245 248 246 246 240 243 247 253 259 262 264 262
228 239 238 223 227 231 235 234 242 241 235 243 251 249 238 235 235 236 239 241 242 242 244 244 243 247 244 244 245 244 243 244 244 244 244 245 246 249 247 248 250 256 263 266 267 268 269 270 266 264 268 273 273 271
230 245 227 230 233 238 231 225 225 239 251 244 239 238 245 246 241 242 240 242 244 246 248 251 253 253 251 251 253 254 255 254 254 254 254 256 256 252 253 254 252 255 259 261 263 267 271 280 278 276 276 277 275 275
255 247 258 249 247 223 231 237 236 253 234 253 253 245 245 246 250 248 244 246 249 252 253 254 252 249 246 246 246 247 245 243 241 241 243 247 253 251 253 262 276 277 276 275 274 276 275 275 270 266 269 278 275 283
248 257 255 242 251 261 255 249 242 254 256 253 239 228 233 242 245 246 252 256 259 259 256 252 249 249 250 253 258 262 260 268 255 253 255 263 272 271 272 273 274 269 259 256 260 257 261 265 268 275 285 285 284 292
248 252 247 240 247 255 255 256 257 264 265 266 263 262 260 259 243 251 257 260 262 263 262 263 266 268 267 267 263 262 265 270 267 270 264 260 263 276 279 275 275 279 285 266 273 274 271 271 281 288 296 314 348 399
257 254 247 255 253 264 263 258 250 233 236 238 241 242 259 254 257 239 237 235 239 241 257 256 254 257 259 262 266 271 274 274 275 274 273 273 272 281 271 274 291 289 286 288 291 293 296 305 351 367 395 362 406 401
266 271 269 270 288 314 287 287 273 275 279 276 273 272 275 275 275 274 276 277 276 274 276 279 280 280 280 282 263 255 285 303 303 309 315 287 286 293 303 315 335 358 354 352 385 383 408 406 403 400 395 388 383 381
331 327 318 305 331 327 328 333 325 332 341 318 334 347 351 348 343 347 349 358 354 346 345 354 369 386 372 392 368 361 407 401 404 403 408 405 404 408 414 416 414 408 406 402 398 398 393 387 383 381 381 377 375 377
319 323 329 327 326 327 328 334 332 333 340 345 353 431 418 354 353 409 413 406 407 407 412 411 412 408 409 407 405 405 347 386 407 415 412 409 408 404 399 396 394 392 388 386 383 376 377 377 378 379 378 377 377 378
311 313 315 315 312 320 337 329 350 360 414 403 344 413 411 408 407 408 407 405 401 401 403 405 405 402 402 405 405 403 397 394 388 388 384 386 383 383 381 376 376 377 379 381 381 380 380 380 379 378 377 382 409 435
303 317 323 324 328 326 338 350 393 409 404 396 393 389 387 386 385 382 382 382 381 380 382 383 383 385 386 387 388 389 382 379 376 378 375 377 379 383 385 384 383 381 381 383 390 402 429 456 476 480 483 482 483 481
312 313 319 321 337 348 341 408 400 382 380 401 412 405 382 377 380 385 388 388 383 376 372 369 372 375 381 379 375 370 370 373 385 383 378 378 385 415 441 481 493 501 505 509 510 510 508 505 501 497 491 487 484 478
322 328 334 344 377 397 389 385 380 388 432 426 412 381 377 398 427 429 407 357 397 388 377 366 364 367 376 383 379 373 376 411 465 508 522 523 522 521 521 524 526 527 525 525 518 508 495 488 484 479 475 514 508 500

GFSWCAN_2pvu_pres_036.txt.gz
Presure
428 407 430 468 454 421 376 338 322 305 315 304 314 321 329 339 384 392 362 293 329 293 261 240 252 240 178 227 224 218 223 220 224 221 223 212 203 197 212 207 212 214 208 215 183 200 214 210 230 242 260 199 227 219
411 399 395 388 374 352 333 319 309 305 296 317 310 314 318 323 340 393 394 326 288 326 303 265 243 232 228 152 221 216 212 211 218 217 193 208 208 204 193 197 178 213 221 208 190 191 182 193 235 237 261 243 232 227
387 385 376 350 334 324 316 310 307 299 307 308 308 311 311 321 330 339 382 257 291 284 326 305 246 236 154 136 222 222 204 211 213 183 213 215 218 212 203 205 209 196 210 195 196 182 179 221 228 235 245 244 235 231
354 349 338 324 319 313 313 310 306 306 308 304 301 308 310 318 321 336 342 113 336 277 317 341 252 246 178 132 226 223 220 216 211 207 210 218 212 210 207 208 208 207 192 192 197 188 195 225 220 229 239 243 233 230
334 331 327 321 315 310 306 304 301 301 308 312 309 312 317 320 325 333 345 262 348 287 192 331 247 256 235 160 223 225 231 221 211 211 219 214 214 209 207 203 197 198 200 195 207 203 196 213 218 231 240 240 235 227
336 254 323 321 320 316 312 309 304 307 309 318 310 318 326 335 339 378 386 403 448 337 340 324 271 259 252 237 232 230 225 224 219 214 216 210 206 196 196 195 202 205 207 209 208 199 197 220 224 242 237 235 235 231
346 314 333 324 321 323 322 321 317 316 311 322 321 330 342 355 384 392 405 406 413 333 300 319 294 256 257 248 243 237 232 229 214 209 172 208 170 200 200 189 190 195 191 202 206 199 211 223 242 236 234 229 231 228
361 352 346 337 329 329 327 324 322 323 330 338 343 265 269 380 386 394 452 418 329 303 284 302 307 264 245 245 241 238 206 208 194 218 217 209 208 187 211 209 209 196 202 216 221 222 242 234 235 235 230 226 231 231
236 340 359 355 355 358 356 354 357 351 365 359 376 389 386 379 385 496 393 321 308 295 289 284 284 277 260 246 241 241 241 239 227 208 218 217 213 187 203 208 218 218 199 213 180 234 236 229 225 233 228 227 228 221
381 399 151 375 380 377 372 196 375 385 389 394 276 216 516 509 357 317 292 286 293 276 296 284 272 280 270 216 244 240 233 231 228 224 214 198 208 214 215 201 174 227 218 246 247 240 232 223 225 226 233 234 234 233
388 391 388 387 393 238 324 397 390 384 398 454 510 164 322 309 314 298 285 278 287 280 269 262 272 259 257 248 245 240 233 239 240 225 220 214 216 217 222 226 238 245 229 251 248 248 242 235 233 235 240 233 230 231
420 427 416 403 372 369 372 434 353 305 335 310 301 303 293 292 286 279 271 275 274 284 281 269 254 263 256 249 243 269 232 227 225 223 223 221 235 218 199 232 230 219 211 231 225 248 237 231 233 235 234 233 233 235
332 334 333 330 323 324 327 323 301 298 285 270 280 272 316 282 244 281 277 269 256 248 207 234 229 228 235 226 245 254 247 239 230 251 242 232 234 221 231 228 224 231 198 232 220 215 230 236 235 235 237 236 233 234
274 270 268 268 266 263 267 221 250 268 273 268 266 269 261 253 260 253 249 248 231 247 256 262 249 232 210 244 235 226 234 248 241 238 241 229 212 223 218 211 196 197 206 223 216 233 232 226 239 243 246 244 242 241
268 231 223 228 251 255 226 259 248 247 221 253 238 238 263 199 258 254 205 249 232 245 251 252 194 211 238 236 234 234 228 238 232 229 231 233 232 233 231 231 229 219 217 216 216 220 221 230 235 258 250 245 245 247
239 264 223 244 230 259 234 239 212 237 218 220 215 261 225 250 214 264 207 216 249 234 251 219 228 247 193 240 229 229 253 226 225 227 231 230 222 222 218 213 217 222 228 220 215 210 215 222 224 231 226 242 227 252
250 231 235 234 241 271 234 238 254 245 264 260 190 214 211 206 241 261 268 213 211 258 229 215 247 238 252 240 242 231 251 246 244 211 225 233 232 230 236 229 226 221 233 215 205 216 205 231 231 231 226 229 234 237
244 240 226 228 249 223 252 244 244 250 218 234 224 259 259 204 208 257 211 222 234 226 243 253 250 238 245 235 236 238 244 226 255 252 222 243 228 233 202 241 229 202 212 202 217 220 222 223 231 240 246 269 270 263
244 272 234 230 262 223 254 223 271 228 262 226 240 236 252 254 222 234 216 229 239 222 222 225 227 274 234 221 223 238 250 266 251 251 259 254 242 253 259 260 253 237 243 220 244 247 252 258 264 267 258 255 254 251
226 252 239 237 239 231 235 257 231 229 240 249 226 229 233 244 250 241 231 228 225 224 238 236 234 225 229 241 279 252 236 242 236 244 253 252 246 245 246 237 235 237 241 246 252 267 271 258 251 250 250 252 257 258
229 230 228 229 233 237 251 243 237 245 239 281 241 239 240 239 233 235 244 250 238 247 230 238 248 268 274 276 256 233 233 236 249 264 266 263 263 275 269 261 252 241 251 263 250 248 249 252 258 253 245 253 258 255
226 229 236 230 225 228 233 234 234 234 235 239 242 249 248 249 250 256 256 252 252 260 266 244 247 247 246 252 263 265 264 258 257 251 251 251 248 252 270 280 275 249 254 255 244 246 244 252 252 253 257 262 251 263
239 237 232 228 225 231 228 235 234 232 232 234 236 239 242 242 244 242 244 245 245 249 244 244 243 244 247 250 251 252 251 253 256 252 254 251 251 251 251 251 251 251 253 256 250 249 254 261 271 266 260 256 255 262
241 235 234 235 237 239 240 242 238 238 246 250 248 246 244 245 243 245 244 244 244 245 245 243 245 244 245 246 247 248 253 252 255 257 253 255 256 256 243 242 239 240 255 262 262 230 261 255 252 262 271 277 282 287
228 233 232 238 242 241 242 244 246 247 259 258 249 245 244 245 248 252 253 249 248 249 251 252 251 248 247 250 254 255 261 268 270 269 267 263 265 265 266 267 268 268 272 253 251 263 277 276 281 287 288 292 301 311
250 251 256 256 254 251 253 254 255 260 258 258 260 259 258 264 270 272 264 264 260 271 273 277 264 260 224 255 258 261 264 267 264 267 261 263 267 268 266 255 263 269 277 285 289 290 291 293 299 308 353 432 430 424
254 253 255 258 256 251 253 264 265 260 257 259 265 270 273 269 266 269 273 277 282 284 284 285 279 275 279 282 285 286 286 285 289 288 290 292 292 292 293 294 294 297 300 305 385 384 430 427 424 420 415 411 411 417
245 251 251 256 261 267 269 277 283 282 284 330 360 360 362 360 358 361 358 361 360 361 366 438 434 431 425 419 424 426 424 423 422 414 384 428 417 429 431 429 425 423 425 423 418 411 402 400 453 554 571 568 562 556
266 264 264 264 265 270 275 294 325 347 349 351 346 346 347 353 355 356 355 356 367 431 423 419 417 414 415 417 418 419 419 419 417 415 291 409 405 405 404 404 402 400 394 408 577 556 420 400 389 381 377 376 377 381
276 280 295 312 319 330 333 331 332 331 324 321 323 326 337 333 336 383 414 408 407 407 402 422 438 431 426 398 392 391 389 391 394 395 392 392 389 390 390 388 440 476 424 401 387 377 370 369 378 381 385 384 381 376
311 314 324 323 322 323 331 330 329 325 326 329 343 342 359 421 410 401 392 393 415 439 436 434 424 390 379 411 426 416 371 367 384 384 384 384 391 495 438 405 387 372 366 363 372 381 382 383 387 395 400 398 394 385
318 320 326 330 334 330 327 325 316 310 343 347 402 414 394 380 399 408 435 444 438 434 426 400 419 414 403 394 387 380 380 380 382 473 433 401 382 371 363 358 357 365 363 357 356 365 368 371 371 376 397 396 392 385
317 334 328 319 312 307 312 329 347 394 400 402 388 380 390 418 438 440 433 427 419 404 394 391 385 379 377 378 411 500 430 399 382 371 362 357 352 352 353 346 346 360 369 374 377 380 385 384 380 376 369 388 395 388

GFSWCAN_2pvu_pres_042.txt.gz
Presure
382 399 449 430 427 408 407 418 399 385 401 394 465 373 349 340 241 342 329 289 298 300 310 218 273 129 93 129 198 199 205 238 230 226 222 209 220 221 209 215 200 203 176 191 189 177 174 176 176 207 207 191 206 195
390 444 441 414 416 394 402 477 385 398 386 410 377 356 343 352 351 318 287 295 290 298 327 499 377 334 262 257 235 233 162 165 232 231 228 226 223 224 219 214 213 200 204 193 184 177 189 169 180 182 213 199 198 200
402 445 438 423 406 395 382 380 382 405 420 377 351 350 344 328 305 170 288 294 314 302 327 439 375 332 276 257 239 220 245 234 227 180 232 230 226 221 218 215 212 187 181 192 192 188 212 186 217 195 208 215 197 208
386 411 423 426 421 431 389 410 444 361 351 347 340 330 319 302 292 293 293 308 312 305 328 468 447 322 287 256 197 236 245 237 234 235 218 228 228 221 224 221 215 213 209 185 206 193 213 221 202 204 213 204 217 220
373 386 382 386 391 409 396 372 358 344 338 324 312 302 289 293 293 295 292 312 312 316 335 441 412 324 302 256 238 239 243 241 238 231 214 215 158 193 228 216 210 208 209 217 217 219 220 219 216 212 200 206 213 213
338 352 370 369 356 338 329 319 313 307 302 283 284 289 289 292 292 308 310 353 363 396 428 408 375 331 312 251 240 131 236 241 240 235 231 229 224 227 234 223 205 213 220 215 216 205 183 211 209 213 216 220 223 212
311 320 322 324 319 316 313 307 303 300 296 282 285 294 307 328 326 336 339 332 320 370 407 398 326 287 312 257 245 237 246 233 140 181 232 233 229 227 225 220 222 224 216 216 216 214 214 211 212 215 200 213 214 199
305 300 300 295 293 292 292 290 289 289 290 295 300 300 305 310 314 318 333 342 351 355 367 381 320 324 314 261 245 181 241 248 196 234 234 233 232 229 227 217 212 216 217 217 213 212 209 200 207 205 206 214 209 210
305 302 298 295 293 289 284 294 301 300 298 297 299 302 304 302 301 307 312 332 343 362 362 383 326 315 316 264 246 234 242 249 147 243 230 236 228 214 208 217 218 219 218 213 211 189 192 210 202 208 204 220 213 212
297 298 296 295 295 296 299 300 301 305 309 308 311 307 304 302 311 311 319 324 340 336 363 344 293 316 272 202 222 244 235 245 246 246 245 241 229 217 212 213 213 215 218 215 211 213 209 209 162 211 213 204 202 218
309 303 298 298 299 296 298 297 300 297 306 313 310 310 317 320 326 337 339 332 343 386 349 319 178 311 352 297 258 240 231 238 247 244 246 239 231 226 216 216 213 214 215 212 210 210 209 169 209 209 190 206 210 222
322 320 318 313 308 308 310 316 321 323 327 331 338 358 369 382 378 380 390 347 456 359 257 287 277 285 289 291 256 243 232 241 244 243 243 241 236 230 168 149 218 170 188 191 210 210 183 209 190 208 206 220 220 215
360 362 358 356 276 383 396 397 402 379 430 366 364 350 345 351 376 406 364 386 364 343 336 309 288 281 198 317 296 262 247 237 241 242 247 230 230 233 234 227 224 223 218 214 213 211 209 207 210 214 219 220 219 206
310 321 336 333 315 329 316 310 308 305 311 320 313 317 313 316 322 331 336 351 336 346 336 297 263 259 269 317 346 270 243 202 229 245 239 234 228 234 240 236 223 214 214 214 213 212 207 217 223 217 197 206 229 214
302 283 296 288 293 292 283 283 285 293 294 300 309 297 299 296 297 304 313 314 332 305 299 285 263 248 252 256 271 287 307 270 249 247 242 233 229 234 234 233 233 231 226 206 221 233 234 231 229 233 231 232 228 225
233 286 240 283 292 291 248 277 277 278 278 286 282 280 240 281 258 275 267 281 271 273 278 288 300 283 288 283 262 274 276 279 187 268 263 241 230 230 231 234 235 231 232 234 229 221 232 227 223 223 231 227 225 219
264 217 266 213 276 262 278 269 262 272 205 251 280 215 272 271 256 255 257 276 264 256 256 262 276 285 267 276 275 217 269 253 248 238 245 246 240 260 254 224 241 229 232 228 233 234 229 225 220 241 241 225 242 240
246 250 240 272 211 260 250 255 239 267 259 251 265 276 219 217 258 242 258 244 255 246 254 252 252 269 256 209 253 252 253 250 243 263 253 256 259 249 258 247 202 252 256 254 237 237 239 239 240 238 237 231 223 235
235 227 230 218 217 258 248 221 220 221 225 252 265 260 246 250 250 227 242 250 211 235 236 255 247 254 247 247 252 246 251 257 247 220 253 253 236 227 253 255 259 224 220 241 239 237 247 249 249 251 250 251 246 237
221 218 237 241 238 231 243 220 232 234 248 224 235 238 242 268 259 255 259 221 236 247 248 230 243 253 248 245 245 244 238 248 238 251 248 244 244 235 246 248 253 247 236 227 223 229 227 227 254 256 259 234 233 231
281 231 237 238 241 229 256 226 241 235 255 260 231 240 220 250 218 219 216 210 209 239 254 254 239 214 237 216 216 220 262 243 258 256 238 240 260 238 226 245 231 238 262 254 261 255 238 235 247 237 236 241 249 253
230 233 240 240 236 246 265 256 231 231 233 236 268 251 232 230 223 254 236 233 233 266 222 224 233 245 221 219 223 233 225 229 226 227 224 225 230 231 235 236 239 234 235 237 240 244 247 252 250 258 258 260 263 265
235 233 230 236 239 241 242 267 235 238 242 242 235 241 254 246 245 232 235 236 236 236 243 255 253 238 238 243 239 238 242 248 261 261 259 250 241 242 241 243 247 247 247 255 258 269 283 274 267 274 266 268 267 267
240 241 241 228 223 227 229 235 231 232 241 242 243 243 243 238 243 252 255 248 235 236 244 244 247 253 241 246 251 249 255 259 253 259 270 273 269 274 253 257 267 260 261 269 273 272 271 266 267 268 272 274 275 277
233 236 225 236 237 236 239 240 240 239 240 241 240 244 248 250 250 247 250 248 247 250 252 252 253 253 254 255 256 259 262 262 265 268 272 270 266 261 262 264 266 266 269 277 281 281 283 285 294 295 290 289 292 299
238 234 234 232 239 240 245 245 242 241 241 244 242 243 243 242 249 251 258 267 269 273 280 283 284 286 283 284 284 284 283 288 290 295 300 301 304 301 300 297 293 290 293 297 300 304 308 309 310 312 354 358 433 425
241 242 244 242 240 238 241 246 248 248 253 255 255 259 251 251 261 274 275 272 273 279 291 291 296 352 364 384 381 378 376 370 376 375 384 419 440 438 435 436 438 437 433 429 428 427 424 419 414 412 409 370 415 418
238 242 247 251 254 264 254 248 257 260 258 264 266 263 267 271 282 288 286 297 284 292 376 369 367 367 368 434 441 434 427 421 417 417 416 417 459 459 450 440 423 421 412 400 393 388 387 384 375 413 407 400 390 383
253 254 252 248 247 252 256 258 261 266 277 279 276 281 297 284 288 297 304 353 372 373 373 367 418 427 422 419 410 407 415 447 456 451 442 432 418 421 416 411 409 402 397 397 414 403 394 387 381 376 373 367 367 377
253 248 247 257 265 262 262 262 268 274 279 286 281 285 288 327 333 343 350 371 366 366 428 422 439 465 456 452 447 448 442 438 429 407 400 395 395 394 398 418 410 395 386 378 372 367 363 363 366 375 378 384 393 407
260 261 263 265 265 269 278 278 287 284 277 290 308 327 333 329 336 347 365 378 424 415 479 474 467 455 445 437 425 412 402 397 393 389 401 421 408 392 381 372 365 359 358 362 367 368 375 379 382 388 400 398 395 410
262 268 275 280 280 283 279 279 281 291 309 322 326 325 329 336 356 368 422 415 483 469 450 437 425 416 407 398 393 386 379 378 415 397 382 371 359 356 353 362 363 364 366 366 367 369 379 396 399 396 427 412 399 138
281 280 276 279 279 280 289 296 312 316 317 320 325 333 346 373 389 420 484 463 442 427 408 396 390 386 378 373 385 418 395 379 367 358 352 359 362 359 360 359 356 356 357 358 366 384 393 429 430 399 385 380 374 259

GFSWCAN_2pvu_pres_045.txt.gz
Presure
392 386 413 454 437 432 443 397 401 407 414 450 370 365 353 350 380 351 329 356 349 113 317 292 245 172 312 353 284 305 294 254 248 222 245 240 236 170 186 218 226 216 182 215 210 213 191 195 190 192 195 177 180 194
389 413 446 416 420 400 394 403 404 447 498 464 370 365 367 339 366 337 335 352 336 344 109 124 103 116 304 333 488 176 241 256 248 250 246 169 238 230 225 220 230 218 192 210 185 193 201 207 180 181 192 177 184 197
402 423 425 396 401 408 399 422 402 433 456 394 363 355 345 360 337 341 347 159 340 337 290 206 298 116 120 122 109 302 255 252 250 247 247 234 240 237 220 226 231 217 199 215 216 207 190 205 176 178 178 193 182 174
394 428 417 382 403 384 384 384 381 382 389 387 369 360 366 355 346 260 339 333 322 303 288 284 294 284 304 367 306 298 277 262 243 257 195 239 245 233 231 230 227 222 220 212 183 206 208 210 205 187 189 193 188 196
385 445 414 387 382 380 386 384 396 393 387 392 405 376 360 345 326 322 314 303 303 272 285 286 291 293 327 450 432 297 278 213 239 253 217 240 237 232 231 233 226 223 211 215 210 206 211 202 197 197 184 205 201 197
375 383 382 383 393 427 413 382 371 365 357 363 338 331 328 318 313 312 306 299 304 288 287 278 287 300 369 423 373 307 274 263 248 114 244 247 235 229 235 228 224 223 215 213 213 211 210 208 207 206 208 210 202 194
322 322 319 320 326 329 329 325 328 330 324 320 316 311 308 303 298 296 287 286 283 296 301 295 289 313 454 446 349 299 270 257 243 247 249 239 239 234 228 224 220 218 159 216 213 213 213 212 182 212 203 204 218 216
314 309 306 300 298 296 298 300 300 301 298 297 294 289 283 284 287 285 294 289 285 300 310 315 306 319 435 401 333 288 266 260 248 247 246 186 233 235 229 223 228 223 220 217 217 215 215 214 205 203 206 221 218 216
293 293 292 291 292 292 290 284 283 287 287 285 281 281 282 288 286 288 294 296 257 314 316 322 321 402 460 394 318 271 267 246 252 216 244 243 237 227 223 221 238 218 216 217 216 221 224 223 224 227 220 212 214 216
288 286 287 292 298 300 302 303 297 298 296 296 300 304 304 311 319 325 331 336 343 357 414 405 370 393 362 383 291 273 266 255 247 241 241 246 230 230 227 223 224 232 225 225 229 221 222 227 223 218 217 217 214 213
292 291 292 294 294 294 292 290 288 291 292 295 297 296 296 302 301 303 310 320 342 383 362 356 350 325 337 334 286 279 231 248 244 240 242 238 238 231 225 220 220 221 219 216 216 218 222 219 220 221 219 218 214 189
296 295 294 298 297 294 295 294 293 298 300 301 299 299 300 300 306 305 312 331 326 344 330 339 334 338 334 273 285 287 240 260 248 246 242 238 241 145 228 225 225 225 223 222 179 219 211 182 214 212 211 212 213 205
308 307 307 312 315 318 318 319 321 321 323 334 335 339 344 371 324 338 319 330 369 323 314 333 337 332 333 271 306 290 257 257 229 242 244 247 236 234 232 228 222 228 215 221 160 213 211 204 211 213 213 213 212 212
356 366 403 416 424 421 423 354 347 337 337 338 339 366 423 428 387 330 324 328 323 317 319 321 320 323 306 299 222 295 276 272 255 248 247 243 236 235 238 234 233 229 232 232 228 222 220 217 213 216 217 217 211 208
297 300 294 306 299 291 282 284 281 284 295 304 331 363 380 363 392 328 321 307 307 309 322 307 294 298 323 242 309 293 289 264 255 213 245 238 236 234 230 231 237 239 237 235 232 230 222 224 231 234 211 216 205 216
282 272 281 269 268 268 276 274 279 277 290 288 295 297 310 397 327 321 324 314 309 305 313 323 283 272 268 277 306 325 312 295 277 255 247 244 234 224 224 219 226 232 236 232 225 224 225 227 231 231 228 215 208 203
251 245 267 260 269 260 259 262 271 271 269 276 276 278 279 289 285 285 285 290 290 287 282 273 279 254 248 254 262 273 281 290 314 277 271 272 244 242 237 227 231 233 233 234 228 226 225 229 226 224 224 227 230 236
253 213 262 268 248 258 232 256 260 271 233 266 261 263 264 266 228 275 261 276 279 267 271 265 257 258 246 238 240 246 190 245 273 282 273 284 307 281 278 254 245 241 233 230 231 233 230 229 213 231 227 225 224 235
223 247 228 241 221 248 244 272 281 269 235 201 240 260 266 256 247 250 259 255 257 263 263 266 268 268 270 258 266 267 275 248 265 267 263 265 266 266 261 262 258 258 259 259 258 256 242 239 231 248 257 259 246 235
239 260 251 249 211 211 218 212 258 250 246 260 261 248 235 257 239 254 236 245 250 254 248 250 249 247 251 253 252 255 260 255 256 256 257 255 256 257 258 254 248 250 249 252 254 251 257 255 257 259 253 250 251 257
236 237 227 233 227 228 234 262 242 230 231 229 227 251 236 239 239 202 249 255 255 244 251 256 220 231 213 244 241 251 246 234 248 254 256 258 256 248 252 252 257 252 252 258 248 252 254 258 258 262 260 229 228 270
254 229 226 220 233 230 252 232 233 241 241 252 240 233 227 224 239 227 231 240 232 241 227 225 246 239 240 244 257 227 235 258 262 232 240 226 250 240 256 260 261 256 260 254 246 246 243 252 258 259 256 254 250 251
233 236 242 237 238 244 244 246 257 252 238 232 239 241 239 239 240 239 222 222 223 224 229 234 236 253 237 233 231 229 245 236 237 242 234 234 244 246 243 241 242 244 245 243 245 247 247 249 251 253 256 238 249 259
234 238 236 235 232 235 233 233 232 229 236 231 231 228 234 237 241 244 244 235 237 241 242 247 251 259 237 242 243 247 247 251 253 251 256 257 256 254 257 262 262 262 260 264 260 260 264 267 267 271 275 264 270 262
251 235 241 237 238 220 220 217 241 239 238 242 241 242 241 243 243 242 245 244 245 246 247 249 248 251 249 251 253 254 255 257 261 263 267 269 273 275 275 280 277 278 277 277 278 279 277 273 276 281 293 296 292 293
241 236 240 240 241 238 239 238 243 245 247 249 247 245 245 244 249 250 249 254 260 259 260 259 261 272 268 275 281 288 328 331 343 319 335 346 349 363 355 307 306 308 304 304 309 351 350 332 359 361 441 434 426 422
239 241 243 240 238 239 238 245 247 242 240 246 248 246 257 256 260 261 261 264 271 283 291 285 291 332 344 374 394 397 433 453 448 441 436 433 432 429 426 426 428 429 457 471 467 455 442 431 423 422 417 409 408 409
242 237 241 241 234 240 243 239 241 245 248 254 252 253 242 263 272 274 274 293 291 288 326 338 344 353 393 443 441 432 431 431 431 433 426 429 436 458 461 454 447 431 423 415 412 413 411 410 405 403 400 396 394 390
245 243 239 243 242 244 249 250 252 253 259 245 252 264 267 272 290 296 289 305 323 332 337 346 362 441 451 475 477 473 465 462 455 452 449 442 434 425 414 403 398 399 401 406 400 393 386 382 380 379 382 389 395 397
250 236 239 242 246 247 252 257 255 259 261 268 271 280 292 289 289 298 317 328 331 333 352 431 482 488 474 467 457 453 444 436 426 415 405 401 395 392 401 403 396 386 378 371 368 370 376 377 379 383 398 446 452 431
244 245 251 251 252 255 261 262 262 264 272 278 289 289 287 296 308 321 329 330 338 372 492 482 462 446 435 426 416 409 404 399 390 384 376 402 398 385 376 368 361 363 368 370 366 364 364 367 374 398 477 395 394 388
249 258 259 259 255 263 265 266 275 279 285 290 286 290 303 313 321 330 334 353 417 475 454 443 420 405 401 397 389 379 373 419 420 394 381 371 359 357 363 367 362 358 357 356 354 353 355 360 375 391 417 383 376 379
259 263 262 266 268 275 277 275 286 289 288 291 301 309 317 323 331 347 381 443 458 442 425 411 396 383 379 381 484 442 403 383 371 358 356 365 364 359 355 353 349 344 344 347 347 353 357 361 375 382 406 388 364 367

GFSWCAN_2pvu_pres_048.txt.gz
Presure
338 376 386 387 381 427 452 443 443 447 449 425 403 417 442 386 309 371 351 338 330 338 343 315 229 348 163 261 305 287 163 332 304 295 292 288 259 258 251 247 240 237 224 224 214 214 202 187 200 200 189 172 115 143
379 368 374 453 437 413 416 402 406 430 436 423 436 420 436 385 387 405 360 341 335 329 341 348 96 372 133 328 332 281 282 323 299 316 296 290 265 249 242 234 238 241 241 225 221 216 206 200 187 198 205 198 188 201
377 410 446 402 451 427 403 399 403 396 384 396 428 397 375 383 392 355 344 330 320 341 193 350 334 328 310 338 305 176 289 335 404 309 288 291 283 258 243 235 242 232 233 226 228 216 210 207 206 201 205 215 217 195
446 419 390 384 383 394 389 402 424 409 390 407 383 370 375 375 397 367 334 276 330 328 346 229 265 316 134 327 185 186 291 327 401 287 227 285 284 271 251 241 142 226 237 232 226 212 209 209 209 210 194 204 193 182
409 394 378 387 386 384 385 430 434 439 400 386 368 364 349 351 337 322 179 308 311 327 325 315 185 329 112 306 287 228 254 319 411 301 293 286 282 270 218 239 238 232 234 230 225 223 216 212 218 215 199 186 189 206
415 437 402 383 390 400 381 400 418 455 379 360 355 340 344 361 340 332 324 319 339 329 323 319 336 327 130 286 270 292 292 147 107 303 287 279 276 265 256 247 236 234 234 234 227 226 228 219 212 226 222 217 200 207
325 330 343 357 350 372 400 384 362 362 353 347 350 354 186 113 326 323 330 331 318 315 320 333 311 294 291 264 281 288 254 320 404 199 287 281 269 250 246 243 239 237 234 234 234 232 227 217 229 226 218 208 208 196
301 307 307 309 318 334 346 361 357 363 368 366 344 337 336 334 335 323 315 318 320 317 318 308 291 288 286 286 285 291 305 358 330 312 285 212 260 247 203 239 235 237 232 231 233 207 222 201 225 219 219 215 214 218
295 294 292 293 293 294 298 307 317 323 323 321 318 314 163 282 309 304 307 310 309 308 299 291 285 285 286 290 169 305 396 368 355 296 291 284 260 255 238 238 241 243 228 228 225 223 224 216 226 222 218 216 181 216
294 294 291 289 291 284 281 282 285 286 287 291 298 299 304 301 305 308 303 305 295 303 290 275 284 289 283 286 297 388 383 363 347 294 130 133 255 249 243 242 242 232 231 231 224 226 223 225 224 221 219 221 221 217
290 291 292 292 294 295 293 292 293 285 287 292 280 281 286 286 288 288 295 292 295 288 293 302 306 316 299 300 353 354 360 320 353 296 280 264 230 252 243 241 232 236 234 230 229 230 225 222 218 218 223 222 216 218
290 289 291 290 289 288 289 288 293 297 295 294 299 304 311 320 325 326 329 340 352 364 401 437 366 306 320 322 330 352 353 327 327 291 280 267 260 246 241 229 233 238 228 224 224 227 227 231 234 237 227 213 228 208
297 295 295 295 293 295 296 296 295 295 293 294 297 297 303 305 307 312 331 390 380 352 341 330 324 319 313 296 294 215 305 231 301 290 259 268 257 245 234 233 234 233 228 225 223 224 225 226 227 227 224 220 220 214
331 335 335 335 336 340 329 326 317 319 327 308 309 310 306 308 311 320 322 333 323 327 310 304 300 294 290 290 285 277 302 307 285 229 272 269 250 246 240 235 238 236 233 231 228 227 224 223 222 221 222 222 221 220
296 295 299 297 285 305 316 338 335 335 343 369 422 382 364 330 331 320 325 317 310 318 323 310 307 301 294 290 276 303 294 241 297 267 264 258 255 243 236 238 236 236 229 227 230 230 224 224 223 227 225 225 225 221
270 272 273 265 275 279 285 313 341 362 367 338 366 339 334 310 307 304 316 313 312 306 304 293 318 325 342 311 305 312 319 300 292 286 211 244 261 247 245 241 235 234 233 232 231 229 230 232 232 230 229 228 230 232
273 266 265 267 267 268 273 273 284 291 292 293 298 298 291 289 290 280 282 284 282 279 293 294 300 299 285 298 312 318 314 306 218 293 277 263 257 243 235 237 239 226 215 229 232 230 224 225 228 227 226 225 228 232
264 249 255 272 274 259 264 256 267 266 272 276 275 269 266 264 272 277 273 271 274 278 272 266 270 276 259 268 276 288 281 299 297 300 292 273 260 258 251 250 247 239 235 235 233 229 225 207 234 233 231 233 233 229
234 272 261 256 258 260 262 266 213 243 259 256 253 267 266 261 260 262 253 258 262 267 276 269 264 265 251 260 259 266 272 270 267 268 278 282 285 290 274 265 259 256 253 248 246 244 244 240 234 237 239 242 244 246
245 228 230 272 267 270 264 263 250 247 230 231 213 258 247 230 250 248 251 250 253 260 255 252 255 253 245 247 260 246 253 240 236 235 237 242 267 269 271 273 275 278 283 279 285 280 224 277 264 270 271 272 272 271
235 247 232 224 231 245 233 254 268 223 209 247 247 248 246 253 253 250 251 253 232 245 251 254 253 249 254 253 257 259 258 258 257 258 256 260 261 260 261 265 269 269 270 268 266 266 269 271 272 270 268 263 261 264
237 229 220 229 226 227 233 224 234 214 252 233 227 227 234 235 231 227 230 235 232 224 238 236 239 243 243 247 253 255 236 247 255 257 258 260 255 249 234 234 241 245 264 266 265 267 271 271 269 268 271 270 272 272
234 215 228 236 237 232 246 229 229 237 241 228 230 229 231 234 227 238 240 230 228 226 231 235 231 231 229 227 229 228 230 240 247 248 243 240 248 250 238 238 245 253 250 247 247 246 244 245 248 249 251 251 250 252
237 242 245 242 242 241 241 237 239 241 240 240 239 242 242 235 235 238 240 240 240 243 244 242 242 242 244 246 246 247 245 247 249 250 253 254 266 250 264 256 257 259 263 264 264 264 274 274 268 272 270 267 266 264
235 233 231 234 234 231 231 229 228 220 227 236 237 236 237 237 240 242 243 245 246 248 250 251 252 250 251 255 258 262 260 269 268 267 269 270 274 273 274 276 277 278 279 284 281 281 278 279 282 283 285 281 286 293
234 239 242 245 243 236 236 240 239 239 239 241 244 250 243 242 243 246 248 253 255 251 249 249 253 263 271 284 305 324 332 373 385 424 449 448 445 438 438 437 437 436 435 438 356 436 437 453 466 457 448 439 433 429
236 239 242 245 245 244 245 246 245 243 241 240 246 249 247 247 248 254 246 259 255 260 273 288 290 297 329 340 353 365 419 457 454 451 454 457 455 455 455 450 450 451 460 464 454 440 431 425 420 413 411 410 407 405
249 250 250 247 239 240 242 241 240 240 232 244 244 246 240 247 253 256 260 263 272 289 293 295 326 335 337 353 436 464 486 490 490 483 478 473 465 460 455 452 445 430 419 410 404 399 400 400 399 393 390 388 386 392
249 248 244 244 243 242 235 243 249 237 248 245 242 247 255 258 263 264 275 278 285 295 311 327 331 338 404 466 497 485 466 457 453 446 441 433 425 417 405 400 397 397 403 399 392 385 380 377 377 376 377 375 377 387
244 238 239 242 240 242 243 231 241 250 247 250 256 258 268 264 272 274 281 289 301 314 326 331 374 446 476 466 449 433 416 406 402 400 396 392 386 384 387 401 390 382 375 370 369 370 369 366 365 364 368 372 375 397
244 245 243 244 241 243 248 254 250 255 256 262 270 263 267 274 280 285 292 305 316 326 343 437 460 465 448 428 412 401 387 381 377 375 397 417 402 387 375 367 361 363 363 363 359 354 350 348 350 357 366 377 386 403
240 243 242 247 252 254 256 253 257 264 268 267 267 273 283 285 284 300 308 319 336 423 446 469 452 429 409 394 383 383 387 444 438 404 387 374 363 358 360 361 360 357 351 342 345 340 340 336 337 338 354 371 388 402
255 256 257 257 255 257 263 259 267 267 268 278 280 284 280 293 307 315 329 356 443 459 446 425 407 400 483 484 522 499 442 398 381 366 356 360 360 356 358 354 344 337 336 340 339 335 331 334 333 336 346 364 388 395